Weather History for Lancaster, OH

Change the Weather History Date:

Thursday, May 9, 2013

  Actual Average Record
Temperature  
Mean Temperature 62 °F -  
Max Temperature 78 °F 69 °F 90 °F (1936)
Min Temperature 48 °F 45 °F 27 °F (1947)
Degree Days  
Heating Degree Days 4    
Growing Degree Days 12 (Base 50)    
Moisture  
Dew Point 52 °F    
Average Humidity 76    
Maximum Humidity 96    
Minimum Humidity 41    
Precipitation  
Precipitation 0.00 in - - ()
Sea Level Pressure  
Sea Level Pressure 29.98 in    
Wind  
Wind Speed 1 mph (SW)    
Max Wind Speed 10 mph    
Max Gust Speed 16 mph    
Visibility 8 miles    
Events      
Averages and records for this station are not official NWS values.
T = Trace of Precipitation, MM = Missing Value Source: NWS Daily Summary

Daily Weather History Graph

Daily Weather History Graph

Search for Another Location

Airport:

Trip Planner

Search our weather history database for the weather conditions in past years. The results will help you decide how hot, cold, wet, or windy it might be!

Date:

Astronomy

May. 09, 2013 Rise Set
Actual Time 6:21 AM EDT 8:33 PM EDT
Civil Twilight 5:51 AM EDT 9:03 PM EDT
Nautical Twilight 5:15 AM EDT 9:39 PM EDT
Astronomical Twilight 4:34 AM EDT 10:20 PM EDT
Moon 6:05 AM EDT (5/9) 8:27 PM EDT (5/9)
Length of Visible Light 15h 11m
Length of Day
14h 11m
Waning Crescent, 0% of the Moon is Illuminated
May 9
Waning Crescent
May 9
New
May 18
First Quarter
May 25
Full
May 31
Last Quarter

Hourly Weather History & Observations

Time (EDT) Temp. Dew Point Humidity Pressure Visibility Wind Dir Wind Speed Gust Speed Precip Events Conditions
12:53 AM 55.0 °F 51.1 °F 86% 29.98 in 10.0 mi Calm Calm - N/A   Scattered Clouds
1:53 AM 52.0 °F 50.0 °F 93% 29.97 in 10.0 mi Calm Calm - N/A   Clear
2:53 AM 51.1 °F 48.9 °F 92% 29.96 in 9.0 mi Calm Calm - N/A   Clear
3:53 AM 50.0 °F 48.9 °F 96% 29.96 in 6.0 mi Calm Calm - N/A   Clear
4:50 AM 48.2 °F 46.4 °F 93% 29.96 in 1.5 mi Calm Calm - N/A   Clear
4:53 AM 48.9 °F 46.9 °F 93% 29.96 in 1.8 mi Calm Calm - N/A   Clear
5:00 AM 48.2 °F 46.4 °F 93% 29.97 in 5.0 mi Calm Calm - N/A   Clear
5:53 AM 48.9 °F 46.9 °F 93% 29.97 in 4.0 mi Calm Calm - N/A   Clear
6:53 AM 50.0 °F 48.0 °F 93% 29.99 in 2.5 mi Calm Calm - N/A   Partly Cloudy
7:01 AM 50.0 °F 48.2 °F 94% 30.00 in 3.0 mi SE 3.5 mph - N/A   Clear
7:13 AM 51.8 °F 50.0 °F 94% 30.01 in 2.5 mi Calm Calm - N/A   Clear
7:39 AM 55.4 °F 53.6 °F 94% 30.02 in 3.0 mi Calm Calm - N/A   Scattered Clouds
7:53 AM 57.9 °F 54.0 °F 87% 30.01 in 5.0 mi Calm Calm - N/A   Mostly Cloudy
8:53 AM 63.0 °F 55.9 °F 78% 30.01 in 9.0 mi Calm Calm - N/A   Partly Cloudy
9:53 AM 66.9 °F 55.9 °F 68% 30.02 in 10.0 mi West 6.9 mph - N/A   Clear
10:53 AM 70.0 °F 57.0 °F 63% 30.02 in 10.0 mi West 6.9 mph - N/A   Clear
11:53 AM 73.0 °F 57.9 °F 59% 30.02 in 10.0 mi Variable 4.6 mph - N/A   Clear
1:53 PM 73.9 °F 57.0 °F 55% 30.02 in 10.0 mi WSW 10.4 mph 16.1 mph N/A   Clear
2:53 PM 75.9 °F 55.9 °F 50% 30.00 in 10.0 mi WSW 5.8 mph - N/A   Partly Cloudy
4:53 PM 75.0 °F 52.0 °F 44% 29.96 in 10.0 mi WSW 3.5 mph - N/A   Overcast
5:53 PM 75.0 °F 50.0 °F 41% 29.96 in 10.0 mi WSW 10.4 mph - N/A   Mostly Cloudy
6:53 PM 73.9 °F 53.1 °F 48% 29.96 in 10.0 mi West 4.6 mph - N/A   Clear
7:53 PM 72.0 °F 53.1 °F 51% 29.96 in 10.0 mi Calm Calm - N/A   Clear
8:53 PM 66.9 °F 53.1 °F 61% 29.96 in 10.0 mi Calm Calm - N/A   Partly Cloudy
9:53 PM 62.1 °F 55.9 °F 80% 29.98 in 10.0 mi Calm Calm - N/A   Clear
10:53 PM 60.1 °F 53.1 °F 78% 29.98 in 10.0 mi SSE 3.5 mph - N/A   Partly Cloudy
11:53 PM 63.0 °F 55.0 °F 75% 29.97 in 10.0 mi SSE 4.6 mph - N/A   Overcast